User: anonymous   Login
Location: Unspecified
(0.0000°N, 0.0000°E)
Time: 12:28:44
(UTC+00:00)
Language:

GALILEO-FM2 - Orbit

View from above orbital plane
View from above orbital plane
View from above satellite
View from above satellite

Ground track
Ground track

The orbit data is extracted from the following two-line orbital elements,

1 37847U 11060B   22273.76758094 -.00000078  00000-0  00000-0 0  9995
2 37847  57.0335  18.4786 0001409 312.2236  51.8132  1.70475201 68024
Epoch (UTC): 30 September 2022 18:25:18
Eccentricity: 0.0001409
inclination: 57.0335°
perigee height: 23217 km
apogee height: 23226 km
right ascension of ascending node: 18.4786°
argument of perigee: 312.2236°
revolutions per day: 1.70475201
mean anomaly at epoch: 51.8132°
orbit number at epoch: 6802

The dashed part of the orbit path shows where the satellite is in the earth's shadow,  

DLR